Location: Gajan
(43.0218°N, 1.1244°E)
Time: 01:46:09
(UTC+00:00)

COSMOS 2455 - Pass Details

Date: 22 April 2021
Orbit: 902 x 907 km, 67.1° (Epoch: 15 May)

Event Time Altitude Azimuth Distance (km) Brightness Sun altitude
Rises 21:23:32 0° 218° (SW) 3,516 5.8 -24.7°
Reaches altitude 10° 21:26:03 10° 221° (SW) 2,580 5.1 -25.0°
Maximum altitude 21:32:00 65° 303° (WNW) 991 3.2 -25.7°
Drops below altitude 10° 21:38:00 10° 26° (NNE) 2,597 5.5 -26.4°
Sets 21:40:33 0° 29° (NNE) 3,543 6.2 -26.6°
